Theta_e
339 344 344 348 351 351 351 352 351 352 352 352 352 352 351 352 351 351 350 350 350 349 349 350 349 349 349 349 349 347 347 349 350 349 349 349 349 350 349 349 350 350 350 350 350 351 351 350 350 351 351 348 346 345 345 345 345 345 345 345 346 346 347 347 347 347 348 351 352 352 351 351 351 350 352 352 352 352 351 354 350 348 348 349 352
337 344 343 346 350 352 351 351 352 351 352 352 352 352 352 351 351 350 350 349 349 349 349 350 350 350 350 350 350 350 349 349 349 348 348 348 348 348 349 348 349 348 349 349 349 350 350 349 350 350 350 348 345 344 343 342 342 342 342 343 343 344 344 345 345 345 346 348 351 351 351 350 350 349 350 352 352 351 349 350 350 346 346 350 352
342 343 343 346 349 351 351 352 352 352 352 352 351 351 351 351 350 349 349 349 349 349 350 350 350 350 350 350 350 349 349 349 348 348 348 347 347 347 347 347 347 347 348 349 350 350 349 349 348 349 348 345 344 342 341 340 340 340 340 341 342 342 342 343 343 343 345 346 349 349 349 350 350 350 350 350 351 350 348 348 348 348 345 350 350
342 342 343 345 347 349 351 351 352 351 351 351 352 351 351 351 350 349 349 349 349 349 349 349 349 349 349 349 349 348 348 348 348 347 347 347 347 346 347 347 346 346 348 349 349 348 348 348 348 348 345 344 342 341 339 339 338 338 339 339 339 340 340 341 341 341 343 344 343 346 345 346 347 349 350 350 351 350 349 348 348 348 348 348 350
342 343 344 344 346 347 350 351 352 351 351 352 351 351 350 350 350 350 350 349 350 349 349 349 349 349 349 349 349 348 348 348 348 347 347 347 347 347 346 346 346 347 347 349 348 348 347 348 347 347 344 341 341 340 338 337 338 338 338 338 338 338 338 338 339 340 341 342 342 342 343 345 345 348 349 349 349 348 348 348 347 346 346 347 348
340 343 344 345 346 346 348 350 352 351 351 351 351 351 350 350 350 350 350 350 350 349 349 349 349 349 349 349 349 348 348 348 347 347 347 347 347 346 346 346 347 346 347 347 347 347 347 347 346 344 342 340 339 338 337 336 336 336 336 336 336 336 336 337 338 339 339 339 336 336 343 345 345 346 348 349 348 347 346 346 347 346 346 346 346
341 344 343 344 345 346 346 350 352 351 351 351 351 350 350 350 350 350 350 350 350 349 349 349 349 349 349 349 349 349 348 348 347 347 347 346 346 346 346 347 346 346 346 347 347 347 347 346 345 343 341 339 338 337 336 335 334 334 332 332 333 334 335 335 336 337 337 334 330 335 339 343 344 345 347 348 347 346 346 346 346 346 346 345 345
337 345 342 343 344 345 345 350 351 351 351 352 351 351 350 350 350 350 349 349 350 349 349 348 349 348 349 349 349 348 347 348 347 347 346 346 346 346 346 345 346 346 346 346 346 346 345 344 343 342 340 338 337 336 335 334 333 332 330 330 330 331 333 333 335 335 335 332 333 335 335 341 344 345 347 346 346 347 347 346 346 346 346 347 345
336 342 342 343 343 343 345 347 351 351 350 351 351 351 350 350 350 349 350 349 349 349 349 349 349 349 349 349 348 348 347 347 346 346 345 345 345 345 345 345 345 345 345 344 345 344 344 342 341 341 338 336 335 334 334 333 332 331 329 328 327 328 329 331 332 333 330 333 333 333 334 337 343 343 347 347 347 347 346 346 345 346 345 344 343
335 339 342 341 343 341 344 346 351 351 351 351 351 351 350 350 350 349 350 349 349 349 349 349 348 349 349 348 348 348 348 347 346 345 345 345 345 344 344 344 343 343 343 342 342 342 342 340 340 339 337 335 334 332 332 331 330 329 328 327 326 326 327 329 331 328 328 331 334 333 331 344 342 343 345 346 347 345 344 343 344 344 342 342 342
335 336 341 341 344 341 345 349 350 350 351 350 351 351 351 350 350 349 349 349 349 349 348 349 349 349 349 348 347 347 346 346 346 344 344 344 344 342 342 342 342 341 340 340 339 340 340 339 337 337 336 334 331 330 329 328 327 326 325 324 324 324 326 328 329 325 328 331 331 332 336 344 341 340 345 345 345 344 343 343 343 342 342 341 341
335 335 338 340 340 340 345 347 349 351 350 350 351 350 350 350 350 349 349 348 348 348 348 349 349 349 348 348 348 347 347 346 345 344 343 342 342 341 340 341 340 340 339 338 337 337 337 337 336 335 334 331 329 328 327 325 324 322 322 322 322 323 325 328 325 324 326 328 330 332 333 335 337 342 344 343 343 342 341 341 341 341 341 341 341
334 335 337 343 340 340 343 346 347 349 350 351 351 351 350 349 349 349 348 348 348 349 348 349 350 349 348 347 347 347 347 346 344 344 343 342 341 340 339 338 339 339 339 337 336 336 336 335 335 332 331 329 327 326 325 323 322 321 321 321 321 322 324 326 322 323 325 326 328 330 331 331 333 340 340 340 340 340 340 340 340 340 340 339 339
333 333 339 343 340 338 340 342 344 347 349 350 351 350 350 349 349 348 348 349 348 348 349 349 349 348 348 347 347 347 346 345 344 343 342 342 341 340 339 338 338 338 337 337 336 334 334 333 332 330 329 327 325 324 323 322 322 321 320 320 321 322 323 322 324 321 322 323 325 328 328 329 331 339 339 339 339 338 337 337 337 337 337 337 337
332 334 337 342 341 339 337 339 342 343 346 348 349 350 350 349 349 349 348 349 348 349 348 349 349 348 348 347 347 347 346 344 343 343 343 342 340 340 339 336 335 336 336 334 332 332 331 331 329 330 327 325 324 323 322 320 321 319 319 319 319 320 323 315 318 318 321 324 324 326 326 327 335 335 335 336 336 336 336 335 335 335 335 335 334
336 335 337 339 340 340 338 337 338 338 342 344 346 347 348 349 348 349 349 349 349 349 349 349 350 349 347 347 347 346 345 344 343 343 343 342 337 334 332 332 333 332 332 331 331 331 330 330 329 328 326 325 324 322 321 320 319 318 317 317 318 320 320 316 314 315 318 321 323 326 324 326 333 332 333 333 333 333 333 333 333 333 333 334 334
337 335 335 335 340 340 339 339 337 334 335 337 340 342 344 346 347 348 347 348 348 348 349 349 348 348 347 347 347 345 344 344 344 344 342 338 335 334 334 333 332 331 331 331 330 330 329 329 328 326 324 324 323 322 320 319 317 316 316 316 316 319 318 316 315 315 316 319 324 323 322 324 331 331 331 331 330 331 331 332 331 331 331 332 331
334 335 333 334 335 339 340 339 339 337 340 335 333 338 341 344 345 345 345 346 346 347 347 347 347 347 346 345 343 342 343 343 343 340 339 338 337 336 336 332 331 331 330 331 330 330 328 328 327 325 324 324 322 321 319 318 316 314 314 314 315 316 316 316 312 313 314 320 320 322 321 328 329 330 329 330 329 329 329 329 330 330 330 330 329
331 334 334 333 334 336 338 339 339 340 341 341 340 338 334 339 341 342 343 343 344 344 345 344 343 344 343 341 337 334 334 336 335 337 337 335 332 330 334 332 331 330 330 330 329 328 328 328 326 325 324 323 322 320 317 315 313 312 312 311 312 311 312 313 309 311 313 316 318 318 320 328 328 328 329 328 328 328 328 327 328 328 328 327 326
328 331 332 332 333 334 334 336 339 340 341 341 341 341 333 332 336 338 339 341 341 342 341 339 336 335 335 332 328 327 326 328 327 329 330 333 330 327 330 333 331 330 330 329 329 328 328 327 326 325 323 321 320 317 315 313 311 310 309 310 313 311 304 305 307 308 311 315 317 316 324 327 328 328 328 327 327 325 326 326 327 326 326 326 325
329 328 330 331 332 333 333 334 337 338 339 339 341 341 339 330 331 332 333 336 338 337 338 332 327 325 326 323 321 328 327 326 326 326 323 325 323 324 328 332 331 331 331 330 329 328 327 326 325 324 322 320 317 315 313 311 310 308 309 310 309 302 302 304 304 307 310 313 315 316 324 325 326 327 326 326 325 325 326 327 326 327 327 327 327
324 326 329 330 331 332 333 333 333 335 336 337 338 339 339 332 336 336 334 333 330 329 331 333 326 329 322 322 326 327 327 326 325 324 324 323 322 321 326 331 331 332 332 330 328 328 327 326 326 324 322 318 313 305 305 310 308 307 307 310 300 301 301 301 303 305 309 312 313 318 324 325 325 325 325 324 325 325 325 326 326 326 326 327 326
322 324 327 329 330 331 332 333 332 334 335 335 336 335 336 336 337 337 336 329 330 329 332 330 330 330 326 325 325 326 326 326 325 325 324 321 322 320 325 328 330 329 331 330 328 327 326 326 325 323 319 315 309 302 300 298 298 305 307 300 300 300 301 301 301 305 308 311 309 319 322 324 325 325 325 324 324 324 325 326 325 325 325 325 325
321 325 326 329 329 330 331 332 332 332 333 334 335 334 334 335 337 337 336 334 333 331 331 331 330 330 327 326 325 325 326 326 324 321 323 322 321 319 323 324 326 326 326 326 327 326 325 325 324 321 317 311 306 303 301 299 294 294 296 301 301 302 301 300 300 303 306 310 309 317 320 323 324 324 324 324 324 325 324 323 323 324 324 324 324
321 325 325 328 329 330 331 332 332 332 332 332 332 332 332 334 335 336 336 335 333 332 331 331 330 330 329 327 325 324 326 325 323 322 322 321 319 318 319 320 320 319 320 318 319 320 320 315 313 311 305 304 303 302 303 300 297 298 300 299 299 299 299 300 301 301 305 306 308 315 318 321 324 324 324 324 323 324 323 323 324 323 323 323 323
321 322 324 326 328 330 331 332 332 332 332 332 331 330 330 330 333 334 334 334 333 333 332 331 330 330 329 327 326 325 325 324 322 321 321 321 319 318 318 319 318 319 319 318 315 317 314 311 309 307 304 302 301 300 300 300 300 299 299 299 298 299 299 299 300 301 305 304 305 314 316 319 323 323 323 323 323 323 323 324 323 323 322 322 322
319 320 324 326 328 329 330 331 331 331 331 332 331 330 329 330 330 330 331 332 331 331 331 331 331 329 328 326 325 324 323 322 322 321 320 320 319 318 318 318 319 318 318 316 316 316 314 310 307 306 302 299 300 301 301 301 299 299 299 299 299 298 298 298 298 299 302 303 308 313 315 318 322 323 322 323 323 322 323 322 322 322 321 322 322
315 320 321 324 325 328 330 330 330 330 331 332 331 330 329 329 328 327 327 327 328 328 328 328 329 328 327 326 323 323 323 321 321 320 319 319 319 318 317 317 318 317 317 316 315 314 312 307 304 301 299 300 300 300 300 300 299 299 299 298 298 297 297 297 297 298 301 303 303 309 314 317 320 321 322 322 322 322 322 322 322 321 320 321 321
310 318 320 321 324 327 328 329 330 330 331 332 331 330 329 328 327 327 327 325 327 327 327 327 326 326 327 326 323 323 321 321 320 320 319 318 317 318 317 317 317 317 317 314 313 312 309 303 300 299 300 300 299 298 298 298 298 298 299 299 298 297 297 298 297 297 298 301 303 305 312 315 318 320 320 321 321 321 321 321 320 320 320 320 320
311 312 319 320 321 326 327 328 329 330 330 331 330 329 328 328 328 327 327 326 327 327 327 326 326 326 325 326 324 323 322 320 319 318 319 316 316 317 317 316 317 316 315 314 311 309 303 299 298 299 299 298 298 297 297 296 296 297 298 297 297 298 297 296 297 297 297 300 302 303 310 313 317 320 319 320 320 320 320 320 320 320 319 320 319
312 311 313 319 320 323 325 326 328 327 329 330 329 329 328 327 327 327 327 326 327 326 325 325 325 325 325 326 324 323 322 320 319 318 317 315 316 316 316 316 316 315 314 312 309 305 300 298 299 297 297 297 296 296 296 297 296 297 297 296 296 296 296 296 296 296 297 298 302 303 304 310 314 317 319 319 320 319 319 319 319 319 319 318 318
311 312 312 313 319 320 323 325 326 326 326 328 327 328 327 327 327 327 327 326 326 325 324 324 322 323 323 325 324 323 321 321 319 318 316 315 315 315 315 315 315 312 312 308 306 302 299 299 298 297 297 297 296 295 297 295 295 296 296 296 295 295 295 295 296 296 298 297 300 303 304 305 310 313 315 319 320 319 320 320 320 318 318 318 317
312 312 313 312 316 319 320 323 324 325 325 325 326 327 326 326 325 326 326 327 326 325 324 324 323 324 323 323 324 323 321 320 318 317 315 315 314 314 314 313 313 310 309 305 303 300 298 298 299 298 297 296 296 295 297 295 295 295 296 294 295 295 295 295 296 296 297 297 297 300 304 302 302 307 310 313 316 318 319 319 319 318 317 317 317
309 312 312 313 314 319 321 322 323 323 323 324 324 323 324 324 324 324 324 325 325 324 324 324 323 323 322 322 323 323 322 320 318 316 315 314 313 314 313 311 309 307 306 303 301 298 297 297 297 296 298 296 295 295 293 294 294 293 294 294 294 294 293 294 295 296 296 296 296 299 302 303 301 301 302 307 310 314 317 317 318 318 318 316 316
305 306 312 312 312 315 320 319 319 320 321 322 321 322 321 323 322 323 324 324 324 323 323 324 323 323 322 321 322 322 321 320 317 316 314 313 312 312 311 310 308 306 304 301 299 298 298 297 297 296 295 294 294 295 294 294 293 294 294 293 293 293 293 295 295 295 295 295 296 297 298 302 301 302 301 299 302 306 311 314 315 316 318 318 317
306 306 307 314 312 314 316 316 317 318 319 321 320 321 322 321 321 320 321 320 321 322 321 322 323 321 321 320 320 321 320 320 316 315 313 311 311 311 310 309 307 304 302 300 299 297 297 297 296 295 294 293 294 293 293 293 293 294 292 292 293 293 293 294 294 294 295 295 295 297 296 296 298 299 301 297 297 301 307 309 311 313 314 315 317
305 305 305 307 312 312 315 315 316 317 318 320 319 318 319 320 320 319 320 319 320 319 319 319 321 321 319 318 319 320 319 319 316 314 313 310 309 309 309 308 306 303 301 300 298 296 296 297 294 294 293 292 293 291 292 294 294 294 292 293 292 292 293 294 293 293 296 294 294 295 295 292 293 299 294 295 296 297 302 305 306 307 309 312 314
304 304 304 305 306 310 313 313 314 316 316 317 318 317 318 318 318 317 317 318 318 317 318 318 319 318 317 315 317 318 317 318 316 313 311 310 308 308 307 307 304 302 300 299 298 296 295 295 293 293 293 293 292 292 292 294 295 294 293 293 292 292 292 293 293 296 293 294 294 294 293 293 293 293 292 293 294 294 295 300 303 303 304 308 312
302 303 304 305 306 307 310 311 312 313 314 315 316 316 317 317 317 316 316 317 316 318 317 316 316 317 316 314 316 317 315 316 315 312 310 308 306 306 306 305 303 301 300 298 297 295 295 294 293 293 293 294 293 292 293 294 294 294 293 292 292 292 292 292 292 291 292 293 294 295 295 293 293 292 291 291 291 292 292 293 293 291 294 303 307
301 302 302 303 304 305 307 310 309 309 311 313 314 313 313 313 312 313 313 314 315 314 316 315 314 314 314 314 314 314 313 314 313 311 309 308 305 304 304 304 302 301 299 297 296 294 295 294 292 293 293 293 294 293 293 293 292 291 291 291 291 291 291 291 291 291 291 293 293 293 292 292 292 292 291 291 291 291 291 291 292 291 292 297 301
300 300 300 301 302 303 304 306 308 307 308 308 310 311 310 311 311 311 310 311 311 313 313 313 314 313 313 312 311 312 311 311 310 309 309 306 305 302 302 301 301 300 299 298 297 296 295 295 294 293 292 292 292 292 293 293 291 288 289 289 290 291 291 291 290 291 291 292 292 291 291 292 291 291 290 290 290 290 290 290 290 290 289 290 294
297 298 299 300 300 301 302 303 306 306 306 307 308 309 310 309 308 309 309 310 310 309 310 311 312 313 311 310 309 308 309 310 309 309 308 306 304 301 300 300 299 299 299 297 296 295 294 294 294 291 292 292 291 292 293 291 288 287 286 287 288 288 289 289 289 290 291 292 291 292 291 291 291 291 291 291 290 290 290 289 289 290 290 290 290
297 297 298 299 299 300 301 302 304 305 305 305 305 307 308 309 309 308 309 309 310 310 309 309 310 311 309 309 308 308 308 308 308 308 308 307 304 301 300 299 299 298 297 296 296 294 295 294 293 293 291 291 290 293 293 292 287 287 287 286 284 285 287 286 288 290 291 291 290 290 291 290 291 290 290 290 290 289 289 289 289 289 289 289 289
295 296 296 297 299 299 300 301 302 303 303 304 303 304 306 307 307 306 307 305 303 305 307 306 306 308 306 306 305 305 305 304 305 305 306 306 305 303 300 299 299 297 297 296 295 295 294 294 294 292 292 290 290 292 293 291 289 289 284 285 284 284 283 284 285 287 289 290 290 290 291 290 290 290 289 289 289 289 290 290 289 290 289 289 289
294 294 295 296 297 297 299 300 301 301 302 302 303 303 304 304 305 304 303 303 302 302 301 302 303 303 304 303 305 305 305 303 304 304 304 305 304 303 300 298 298 297 297 296 295 295 294 295 294 293 292 292 290 290 292 291 290 292 289 285 284 284 283 284 285 285 287 287 288 289 290 290 290 289 288 288 288 288 289 289 289 289 289 289 289
293 294 295 295 295 296 297 299 299 300 300 301 302 302 302 301 300 300 299 299 299 299 298 298 300 301 302 302 303 303 303 302 302 303 303 302 303 303 301 299 297 297 296 296 295 294 294 294 294 293 292 291 291 290 290 291 290 291 290 288 287 285 284 285 285 282 286 286 287 288 288 289 289 289 288 288 288 288 289 289 289 289 289 289 289
293 294 294 294 294 294 295 296 297 298 299 300 301 300 300 300 300 299 299 298 298 299 300 301 301 301 303 302 301 302 302 302 301 300 301 301 301 301 301 300 298 297 296 295 294 294 295 294 294 293 292 292 289 289 290 290 290 290 292 293 291 289 289 286 283 281 280 283 286 286 287 288 288 288 288 287 288 288 288 288 288 288 288 289 289
292 293 293 294 293 293 293 294 295 296 297 298 299 300 299 298 298 298 298 298 298 298 299 299 299 299 299 300 300 300 301 301 300 300 299 299 300 300 300 300 298 297 296 295 295 294 294 295 294 294 292 292 291 290 289 290 289 289 290 291 291 291 291 290 289 286 283 281 282 285 286 287 287 287 287 287 288 288 287 287 288 288 288 288 288
292 292 293 293 293 293 292 293 293 294 295 296 297 298 298 298 298 298 297 299 299 299 298 299 297 297 298 298 299 299 298 299 299 299 298 299 298 298 297 298 298 297 296 296 294 294 293 293 293 293 292 292 291 290 290 289 289 289 288 288 290 290 289 288 289 290 282 281 281 282 283 285 286 286 287 287 288 288 288 287 288 288 288 288 288
291 292 292 293 292 292 292 291 291 292 293 294 295 296 296 297 296 296 296 296 298 298 297 297 297 297 297 297 297 297 296 297 297 297 297 298 297 296 297 296 297 296 295 294 293 293 293 293 294 293 293 292 291 291 291 290 290 289 289 290 290 287 287 286 286 287 287 285 283 282 283 283 283 285 287 287 287 288 288 287 288 287 287 287 288
290 290 291 291 291 292 291 291 291 291 292 292 292 293 293 294 294 294 294 294 295 295 295 296 296 296 296 295 296 296 295 295 296 295 296 296 296 296 295 296 296 295 295 294 293 293 293 293 294 293 292 292 291 291 290 290 290 289 288 288 290 290 290 288 287 286 288 286 283 283 284 285 285 283 285 288 287 288 288 287 287 287 287 287 288
Wind_Speed
4 10 10 15 16 17 18 17 16 15 15 14 13 12 12 11 11 10 10 10 10 10 10 10 10 10 9 9 8 8 7 7 7 6 6 6 5 5 5 4 4 4 4 5 6 7 7 8 9 10 12 11 10 11 11 11 11 11 11 11 11 11 11 9 9 9 9 8 11 12 11 10 11 11 11 11 12 12 12 9 10 8 5 8 12
5 10 10 11 17 16 18 17 17 16 15 14 13 13 12 11 11 10 9 10 10 10 11 11 11 10 10 9 9 8 8 7 6 6 5 5 5 5 4 4 4 4 5 5 5 6 7 8 9 10 12 11 10 11 11 11 11 11 11 11 11 11 10 10 9 8 8 7 8 10 9 11 11 11 11 12 13 14 13 12 11 5 4 11 12
5 9 9 11 15 16 16 17 17 16 15 15 14 13 12 11 11 10 10 10 10 11 11 11 10 10 10 9 9 8 8 7 7 6 5 5 4 4 3 3 2 2 4 4 5 5 8 8 9 11 11 10 10 10 11 11 11 11 11 11 11 11 10 10 9 8 8 7 5 8 9 9 10 11 11 12 13 13 13 13 12 8 6 12 11
7 8 9 11 14 15 15 15 15 15 14 14 13 13 12 12 11 11 11 10 11 11 11 10 10 9 9 9 8 8 7 7 6 6 6 5 4 3 2 1 2 1 2 3 6 7 9 10 10 12 10 9 9 10 10 10 10 10 10 10 10 9 9 9 9 8 7 6 5 2 2 4 5 9 11 11 12 13 11 12 11 11 11 11 12
7 9 9 10 9 12 15 14 14 14 14 14 13 14 13 12 12 12 11 11 11 12 11 10 10 9 9 8 8 8 7 7 7 7 6 6 5 3 1 1 1 2 3 4 5 9 8 9 11 11 9 8 9 9 9 9 9 9 9 9 9 8 8 8 7 8 7 5 5 4 2 5 4 7 10 12 12 11 10 11 11 11 11 11 11
6 9 10 10 8 9 14 14 15 16 15 14 14 13 13 13 13 12 12 12 12 11 11 10 10 9 9 9 9 9 8 8 7 6 6 5 5 4 3 2 2 2 5 6 7 7 9 9 9 10 8 7 7 8 8 8 8 8 8 8 8 8 8 7 7 7 8 10 9 2 5 4 5 4 8 10 11 11 10 10 10 10 10 12 12
7 9 10 10 8 9 13 14 16 16 16 15 14 13 13 12 13 12 12 12 12 11 11 11 10 10 9 10 10 10 9 9 8 8 7 6 4 4 3 3 3 4 5 7 7 7 9 9 8 10 6 5 6 7 7 8 8 7 7 7 7 7 7 7 7 8 8 7 3 4 3 7 5 3 6 8 9 11 10 10 10 10 10 11 12
4 7 10 10 9 11 13 14 14 16 17 14 13 13 13 13 12 13 12 11 12 12 12 11 11 11 10 10 10 9 9 9 9 9 8 6 5 3 3 3 3 5 7 6 6 7 9 9 8 9 4 4 5 6 6 7 7 7 7 7 7 7 7 7 7 8 10 5 4 4 5 3 5 4 7 7 9 9 9 11 11 12 12 14 12
5 6 10 9 9 17 14 14 15 15 17 15 14 14 13 14 13 13 12 12 11 12 12 11 12 11 11 10 10 10 10 10 10 9 8 7 5 5 5 5 4 6 6 6 7 7 8 7 6 8 3 3 4 5 6 6 6 6 6 6 6 6 6 7 7 8 6 2 4 4 5 5 5 5 7 8 9 11 10 8 10 12 13 13 12
5 4 8 8 8 18 16 15 16 16 18 16 13 14 14 14 13 14 13 13 11 12 12 12 12 12 11 11 9 11 11 10 10 10 9 8 7 6 5 5 5 4 4 5 5 5 5 5 5 7 4 2 4 4 5 5 6 6 6 7 6 6 6 7 8 7 4 4 3 4 3 7 5 4 7 10 12 13 13 10 7 6 7 11 10
6 4 5 8 10 18 16 14 16 16 17 16 14 15 15 15 14 14 13 13 12 12 12 12 12 12 12 11 11 12 12 12 11 10 9 9 8 5 5 3 3 3 1 2 3 4 4 3 2 3 2 2 4 4 5 5 5 6 6 6 6 6 6 7 7 2 4 4 5 5 6 12 5 4 10 11 13 12 10 8 8 9 9 8 9
7 4 4 5 14 17 17 16 15 16 16 16 15 16 16 15 15 14 14 14 13 13 12 12 12 12 10 11 11 12 12 13 11 10 9 9 8 6 5 4 3 3 0 1 1 2 2 2 2 2 2 1 4 4 4 5 5 5 6 6 6 6 7 8 4 4 4 4 4 4 4 5 3 4 10 10 10 9 8 8 9 8 9 9 9
7 6 4 5 10 16 18 17 14 15 15 15 16 17 17 17 16 16 14 14 14 13 12 12 10 11 11 11 12 12 12 12 11 11 8 9 8 7 5 4 4 4 4 3 1 4 3 3 2 1 1 3 4 4 4 4 5 5 6 6 6 6 7 8 4 4 4 4 4 6 5 5 4 5 6 7 7 8 7 8 8 7 8 8 8
6 6 5 6 6 13 17 17 15 13 13 14 15 15 16 16 15 16 15 14 13 13 13 12 11 11 11 12 12 13 12 10 10 11 10 9 10 9 7 6 5 5 5 4 5 5 4 4 3 3 4 4 4 4 4 4 5 5 6 6 6 7 9 6 5 4 3 3 3 6 5 5 4 7 8 7 7 6 6 6 7 7 8 6 6
5 5 5 7 7 8 14 15 14 13 12 12 14 14 15 15 16 15 16 14 14 13 13 12 11 13 12 13 14 13 12 11 11 11 11 10 9 8 9 8 6 6 6 6 5 4 5 3 2 4 4 5 4 5 5 5 5 5 6 6 6 7 7 3 2 2 2 3 3 5 5 4 8 6 5 5 5 6 6 5 5 6 5 5 6
4 4 5 7 7 8 8 11 14 12 11 11 12 13 13 14 14 14 14 14 14 14 13 12 11 12 13 14 14 14 12 11 11 11 11 11 7 5 2 4 6 6 5 5 4 5 3 3 3 5 5 5 5 5 5 5 5 5 6 6 6 6 7 5 2 4 4 5 4 6 6 5 11 5 5 4 5 5 5 4 5 4 4 5 6
3 5 4 5 9 7 7 7 9 11 10 10 10 12 12 12 13 13 13 13 13 13 12 12 11 12 14 14 13 11 10 10 10 9 8 8 8 7 5 5 6 6 6 5 5 5 5 4 5 6 5 5 5 6 5 6 5 5 6 5 5 5 7 7 5 4 4 3 6 5 5 5 7 6 6 5 3 3 3 4 3 4 3 4 5
3 4 4 4 5 9 7 7 8 8 7 8 9 11 11 11 12 12 12 12 12 12 12 12 12 13 13 13 11 9 9 11 9 9 9 8 8 6 5 6 6 7 7 7 6 6 4 5 7 6 6 6 6 6 6 5 5 6 6 5 5 6 6 7 4 2 1 4 6 5 5 6 6 5 4 4 3 3 3 4 4 4 4 3 3
3 4 4 4 5 6 9 8 8 8 8 7 6 8 11 11 11 11 11 11 11 11 11 12 12 12 12 10 8 8 9 9 10 9 8 8 8 8 5 7 8 8 7 8 7 7 6 7 8 8 8 7 7 6 6 6 6 6 6 5 4 5 7 5 3 3 4 6 6 5 5 7 4 4 4 4 4 4 3 2 3 3 2 3 2
3 4 5 5 5 5 6 8 9 9 8 7 8 7 9 11 10 11 11 11 11 11 11 10 11 9 9 8 8 7 8 8 11 8 9 10 9 7 7 4 7 8 9 8 8 7 8 8 8 9 8 8 8 7 6 6 6 5 4 4 5 6 3 3 3 4 5 7 6 5 6 7 4 4 4 4 4 3 2 2 2 3 3 3 3
3 4 5 5 5 6 6 7 8 9 9 8 8 9 9 12 9 10 11 11 11 11 10 9 8 7 7 8 8 6 5 5 7 5 8 6 9 9 8 5 7 8 9 8 9 9 9 9 9 10 10 9 9 8 6 6 5 4 3 4 6 4 4 5 4 4 5 6 6 5 9 6 4 3 4 3 3 3 3 3 3 4 4 3 4
5 5 5 5 6 6 7 6 8 10 9 8 7 7 7 11 9 7 7 8 9 9 8 6 6 4 7 7 5 6 6 5 5 6 5 6 7 10 8 7 8 6 7 9 11 10 10 10 11 11 11 10 9 4 4 5 4 1 2 4 3 1 3 3 4 5 5 5 4 6 10 7 4 3 3 3 2 2 2 3 3 3 4 4 4
6 6 7 8 6 6 6 8 7 10 11 9 7 7 8 9 9 8 7 8 8 7 6 7 6 6 6 6 6 6 6 7 6 6 5 8 8 9 9 9 8 7 7 9 9 11 11 11 11 11 11 11 6 5 4 3 1 2 3 2 0 4 2 2 4 5 4 4 3 7 8 7 4 3 3 2 2 2 2 3 3 3 3 4 4
8 8 8 7 6 7 8 9 8 9 11 9 7 7 6 8 8 8 8 7 7 7 7 7 7 6 7 7 6 6 6 6 9 12 10 7 7 9 10 9 9 7 10 7 8 9 11 11 11 11 8 5 4 6 6 4 4 4 3 2 3 1 1 3 3 4 4 4 3 7 7 7 5 2 2 2 2 2 2 2 3 3 3 4 3
8 7 7 9 11 10 9 9 9 8 9 9 9 8 8 8 8 9 9 8 8 8 7 7 7 7 8 7 7 5 5 6 5 6 6 7 6 5 6 6 4 4 8 4 5 4 5 5 4 6 4 4 4 5 6 6 6 5 3 5 3 2 3 3 3 4 6 4 3 6 7 7 6 3 1 3 3 3 2 2 3 3 3 3 3
7 7 9 9 11 11 10 10 10 9 10 9 9 9 10 7 9 9 9 8 8 8 8 7 7 8 7 8 7 7 6 6 6 7 6 7 7 6 6 6 5 5 5 6 5 5 5 5 4 4 4 5 4 4 4 5 5 3 4 3 4 3 3 4 2 3 6 5 3 6 7 7 7 5 2 1 3 3 3 3 3 4 3 3 3
7 8 8 8 10 10 10 9 10 9 10 9 7 7 8 7 7 8 8 8 8 9 9 9 9 7 7 7 8 7 7 7 7 7 6 6 7 7 7 6 6 6 6 7 6 6 6 6 6 5 5 4 3 3 2 2 3 4 4 2 3 4 4 3 3 4 6 4 3 6 7 7 8 6 1 0 2 3 4 4 4 3 3 3 3
6 8 8 8 9 12 12 10 10 9 8 8 8 8 6 7 7 7 8 8 8 8 8 8 8 9 8 7 7 7 7 7 7 8 7 6 7 7 7 6 6 6 6 6 7 7 7 7 6 5 4 4 4 3 3 2 3 4 4 3 2 4 4 4 3 2 5 5 3 5 7 7 8 7 2 0 2 2 3 3 3 3 2 4 3
5 7 8 7 8 9 10 11 9 11 9 9 9 8 7 7 7 7 7 7 7 7 7 7 7 7 7 8 7 8 7 7 7 7 7 6 6 8 8 7 7 7 8 6 7 7 7 7 7 6 5 5 4 4 4 4 4 4 5 4 4 4 4 4 3 2 3 5 3 4 6 7 8 7 3 2 1 2 3 2 2 2 2 2 3
9 7 7 8 7 9 11 12 11 11 10 10 10 9 9 9 9 8 7 7 6 6 6 7 7 7 7 8 8 7 7 7 7 7 8 7 6 7 8 8 8 7 8 8 6 8 7 7 6 5 6 5 5 4 4 4 3 4 5 4 4 5 4 4 3 2 3 5 4 3 6 7 8 8 5 4 2 1 1 1 2 4 3 4 2
7 8 7 8 8 9 10 11 11 9 9 10 9 10 9 9 8 8 7 7 7 7 7 7 7 7 7 8 7 8 7 7 7 7 7 7 6 7 7 7 7 7 8 8 6 7 7 7 7 7 7 6 6 5 5 4 4 4 4 4 3 4 4 4 4 2 3 4 5 3 3 7 8 10 10 7 6 3 2 1 2 1 2 3 3
6 7 7 5 7 9 10 11 11 11 11 10 9 9 9 9 8 8 9 7 7 7 7 7 7 7 6 8 7 7 7 7 7 7 7 7 7 7 7 8 8 7 8 7 7 7 7 6 6 6 5 5 6 6 5 6 4 4 4 4 3 4 4 4 4 3 3 4 5 4 5 4 8 10 11 12 10 8 7 8 6 2 2 2 2
6 6 7 5 6 7 7 8 10 9 10 10 9 8 8 7 7 7 8 8 8 7 7 7 7 7 7 8 8 8 6 7 7 8 7 7 7 7 7 7 7 7 7 7 7 6 6 7 7 5 6 5 6 5 4 5 6 5 5 4 3 3 4 4 4 4 2 1 3 6 5 4 4 7 10 11 12 11 9 9 8 5 2 2 2
2 4 5 5 5 4 4 5 7 8 9 8 7 6 6 6 6 6 6 6 6 7 7 6 7 7 7 8 8 8 8 6 7 7 7 7 7 7 7 7 7 7 7 7 8 7 7 7 7 7 7 7 7 6 6 6 5 5 4 3 4 4 3 3 4 4 2 1 1 4 6 5 5 5 5 9 11 11 11 9 9 10 8 3 1
5 3 2 5 5 4 4 3 5 5 7 7 6 6 5 5 6 5 6 5 6 6 6 6 6 6 7 7 8 8 8 7 7 8 8 8 8 7 7 7 7 7 7 7 8 7 8 8 8 8 6 7 6 6 5 6 6 6 4 3 4 4 3 4 4 3 1 1 1 2 3 4 6 5 5 5 6 9 10 10 10 10 10 10 6
11 8 4 2 3 4 4 3 4 5 5 6 5 5 5 4 5 4 4 4 5 5 6 6 5 6 6 6 7 7 7 7 7 8 8 7 8 8 7 7 7 7 7 7 7 8 7 7 6 7 8 6 7 6 5 6 5 5 5 4 5 4 4 5 4 3 1 1 1 1 1 3 3 4 5 5 5 5 8 9 9 10 10 9 9
9 9 10 4 1 3 5 4 4 5 4 5 4 4 4 4 4 4 4 4 4 3 3 3 4 5 6 6 6 7 6 6 6 7 8 7 7 7 7 8 7 8 8 7 7 7 8 7 7 7 7 7 7 7 5 7 6 5 5 5 4 4 5 5 4 4 2 2 3 2 3 3 3 4 6 5 5 5 5 8 8 9 8 8 8
11 13 10 10 4 2 4 4 3 2 1 3 4 4 3 3 3 3 2 3 4 3 3 3 4 4 4 5 6 6 6 6 7 6 7 7 6 7 7 8 8 8 8 7 7 7 7 8 8 6 8 7 7 8 7 7 6 6 5 5 4 3 3 5 4 4 3 2 4 3 4 4 2 1 4 5 5 4 3 5 7 7 6 6 6
10 12 12 12 10 7 6 4 4 3 1 2 3 3 3 3 3 2 2 1 2 1 2 2 2 3 4 4 6 6 6 6 6 6 7 7 6 6 7 7 8 8 8 8 7 7 7 7 8 7 6 7 8 8 8 7 6 5 5 4 4 3 3 3 4 4 4 4 4 4 4 5 3 3 4 4 5 5 4 3 3 3 3 5 5
10 11 12 12 12 10 6 5 4 3 2 2 4 3 3 3 3 2 2 1 1 2 0 1 1 2 3 4 5 5 5 6 5 5 6 7 6 6 7 6 8 8 8 9 9 8 10 9 9 9 8 5 6 7 7 8 6 6 4 3 3 2 2 2 3 4 4 5 5 4 4 4 5 4 3 3 4 4 4 3 4 4 3 3 3
11 11 11 12 12 11 10 6 4 4 4 2 2 2 1 1 1 3 2 3 3 1 1 1 0 1 2 3 4 5 5 5 4 5 6 6 6 5 5 6 7 8 8 10 9 9 8 8 7 6 9 7 5 6 7 9 9 4 3 3 1 1 2 1 4 4 4 6 6 6 4 5 4 5 4 4 4 4 3 3 4 5 4 3 2
12 11 12 11 11 11 11 10 6 5 5 3 3 2 1 1 1 2 1 1 2 3 3 1 2 1 2 3 4 4 4 5 6 6 6 6 6 6 6 7 7 7 7 6 6 6 6 6 6 5 4 7 6 8 9 10 2 7 6 2 0 1 2 3 4 4 5 5 6 7 6 6 6 6 5 5 4 4 4 4 4 5 5 4 4
9 10 10 10 11 10 9 8 8 7 6 5 6 2 2 3 3 3 2 1 2 3 2 1 2 2 2 4 4 4 5 5 5 6 7 6 7 7 7 7 7 7 7 7 7 8 9 10 9 10 7 4 3 5 10 10 7 5 3 5 2 2 2 3 4 5 6 5 6 7 7 7 7 7 6 6 5 5 4 4 4 4 4 5 5
10 10 10 10 8 9 9 9 9 9 8 7 6 5 5 6 6 6 6 7 3 4 5 5 4 3 2 3 3 3 3 4 4 4 5 5 7 7 7 7 8 8 9 8 8 9 8 8 9 9 9 8 5 8 9 8 6 11 4 6 4 4 2 8 7 4 6 6 6 6 6 6 7 6 6 7 6 6 5 5 5 4 4 4 4
9 9 9 10 8 10 10 9 9 9 8 8 7 6 4 4 5 4 3 3 3 4 2 1 2 1 1 2 1 1 2 4 4 4 4 5 5 5 6 6 7 7 7 8 9 10 10 10 11 10 11 12 10 6 7 8 8 10 8 5 1 2 6 3 6 2 4 4 5 5 5 5 7 7 7 6 6 7 6 5 5 4 4 4 4
11 10 9 10 10 10 10 10 9 8 8 7 7 6 4 3 2 2 1 1 1 1 2 3 3 3 4 2 3 3 3 3 4 4 5 4 5 5 5 5 6 6 7 7 7 7 8 9 11 11 11 9 10 7 8 8 8 9 5 4 7 7 5 3 5 4 0 3 4 4 5 5 5 6 6 6 7 7 7 7 6 6 5 4 4
11 9 9 10 10 10 9 9 9 8 9 8 8 8 7 5 4 4 4 3 3 2 1 1 2 2 4 4 3 3 4 4 3 4 4 5 5 5 5 5 5 6 6 6 7 8 8 10 8 9 10 10 7 10 12 11 7 7 7 7 1 1 4 8 6 5 1 3 4 5 5 5 5 6 7 6 7 7 6 6 6 6 6 5 5
8 9 9 9 10 10 9 9 8 8 8 9 8 8 6 5 5 4 3 3 3 2 2 2 3 4 3 2 2 2 3 3 3 4 4 4 5 5 5 5 5 5 6 7 8 6 6 6 8 9 9 9 10 11 10 9 14 11 10 8 4 1 1 0 3 9 6 5 6 3 4 6 5 6 7 7 7 8 7 7 7 6 6 6 5
10 10 9 9 8 8 9 8 9 8 8 9 8 8 7 6 5 5 5 5 5 5 5 5 3 4 1 1 1 1 3 3 3 3 4 4 4 5 5 5 5 5 6 5 6 6 7 7 8 9 10 9 9 8 8 10 10 10 9 7 4 5 3 2 0 1 4 4 3 7 6 2 4 6 7 7 6 7 8 8 7 7 6 6 6
7 8 8 8 8 7 9 9 8 8 7 8 8 8 8 7 6 5 5 5 6 6 5 5 5 4 1 1 1 1 1 3 3 3 3 3 3 3 4 5 5 6 5 5 5 6 6 6 8 9 10 11 8 9 10 8 10 9 10 9 9 4 3 3 4 4 2 4 7 8 8 10 9 10 8 9 8 8 7 7 7 7 7 7 6
9 9 9 8 8 8 8 10 9 7 7 7 7 7 6 6 5 5 5 6 6 5 6 6 5 5 5 3 1 2 2 2 3 3 3 3 3 3 4 5 5 4 5 5 5 6 7 7 7 8 10 11 10 9 8 6 8 10 9 8 10 11 13 11 10 8 7 5 3 4 5 9 12 5 8 10 8 8 8 8 9 8 8 8 7
Wind_Direction
217 137 148 156 157 162 162 165 166 167 167 167 167 167 167 167 165 163 160 160 156 156 150 150 148 144 139 137 133 131 128 130 124 115 106 112 113 116 115 112 119 120 104 104 107 114 112 108 100 92 89 78 75 73 71 67 65 61 59 57 59 64 67 61 47 45 49 56 79 81 80 80 76 74 69 65 59 49 49 81 76 70 60 64 67
168 131 146 159 157 163 163 165 167 168 169 170 170 170 169 167 167 165 163 164 161 157 156 155 152 149 146 142 139 138 135 132 128 120 122 114 116 117 110 124 137 126 126 114 122 122 114 104 100 90 78 74 71 69 66 64 61 60 58 54 51 49 47 44 41 34 29 37 66 79 77 79 77 76 73 67 62 59 57 59 68 73 79 70 66
131 131 146 159 160 163 163 166 168 169 171 172 171 173 170 169 167 167 167 168 166 162 161 160 157 154 152 148 146 144 142 138 136 135 131 124 122 124 128 115 110 121 103 127 123 124 113 103 90 76 70 71 71 68 65 65 60 58 58 54 48 43 39 33 28 22 18 13 70 91 80 76 79 75 76 72 68 66 67 66 61 51 68 74 73
137 132 148 159 161 163 165 166 167 170 172 173 173 171 170 170 170 168 167 172 169 168 165 164 163 161 157 155 152 150 149 147 146 148 140 140 131 126 127 124 112 90 105 136 122 114 109 99 85 78 71 71 73 71 70 68 66 62 59 58 55 46 37 31 18 11 8 360 340 68 45 88 73 85 81 78 75 72 71 75 74 71 70 68 65
144 134 143 156 163 164 167 165 164 171 171 173 178 170 169 174 172 168 169 173 173 172 170 170 168 166 162 163 160 158 156 160 160 158 152 151 143 119 115 148 115 91 104 105 111 113 108 98 88 85 74 71 71 72 70 69 66 63 57 54 52 49 41 26 13 354 346 335 307 302 191 102 85 82 90 87 82 78 78 81 79 76 70 68 67
151 134 142 157 163 168 168 165 166 170 173 175 176 171 173 175 172 172 172 177 177 175 175 174 173 170 172 173 169 167 169 170 165 155 150 152 153 145 164 193 169 127 132 124 118 110 103 92 90 87 78 77 79 79 74 71 67 63 58 53 47 40 36 23 1 347 338 331 329 300 150 117 99 73 88 93 91 82 79 81 81 77 76 71 65
153 134 149 159 161 168 171 167 168 172 173 177 174 173 174 176 176 175 177 185 181 182 181 181 180 182 182 184 178 179 173 167 160 153 148 145 147 156 173 192 165 150 115 119 121 116 101 95 92 82 81 81 84 82 78 75 72 65 59 52 45 37 27 16 355 340 331 324 301 325 68 117 103 98 92 90 89 92 87 81 77 74 74 74 72
154 139 154 161 161 165 168 171 170 174 174 177 174 174 176 179 178 180 182 188 188 188 186 188 189 189 193 188 188 182 171 163 159 146 141 138 143 144 160 131 144 132 121 110 103 94 94 96 90 85 81 77 79 79 77 70 67 64 59 53 45 35 20 4 351 337 327 320 356 15 26 58 106 98 78 79 81 85 83 81 76 73 71 67 55
160 152 153 162 165 161 168 171 172 175 178 179 177 177 180 183 183 184 185 189 192 194 192 193 195 194 195 196 188 180 170 167 162 146 138 130 126 123 121 128 127 123 133 120 105 91 86 91 93 96 89 79 79 74 73 68 63 62 57 53 46 33 17 356 342 333 315 336 11 19 5 43 72 82 88 78 80 76 72 65 69 68 66 67 63
152 182 155 161 163 164 167 171 173 176 181 179 179 179 185 185 186 188 189 190 193 197 195 198 198 200 200 197 187 181 169 169 164 149 146 134 132 137 134 128 135 123 122 112 100 99 101 95 95 98 96 83 78 72 67 67 64 60 59 54 46 30 12 357 338 325 332 7 17 356 19 64 70 81 94 91 83 83 82 81 82 82 82 76 72
154 191 153 167 155 166 169 170 174 177 181 179 179 180 187 186 187 191 192 191 193 197 198 201 203 203 203 199 188 178 172 170 159 153 150 145 133 143 125 128 106 73 36 99 126 119 120 119 100 111 126 76 82 76 66 61 59 57 57 57 49 33 7 355 335 308 8 23 13 346 42 82 76 69 90 89 88 84 80 75 69 71 69 71 71
155 187 173 158 155 166 171 174 175 179 183 178 179 180 186 188 189 192 194 194 195 199 200 204 208 208 204 200 188 179 171 183 158 160 163 162 159 153 163 137 157 128 359 210 239 215 185 133 122 103 94 115 85 76 69 58 56 55 55 55 49 35 11 347 338 23 17 20 1 346 69 64 72 104 95 90 85 78 70 70 69 63 69 69 69
160 180 153 113 159 168 171 174 180 182 183 180 182 182 187 190 190 192 194 196 198 201 203 207 206 208 205 199 191 178 184 179 168 155 157 163 158 152 169 203 211 222 222 218 267 241 200 187 156 166 135 118 90 79 74 67 63 61 58 55 48 29 6 347 21 30 29 15 359 10 36 47 28 85 84 84 79 73 69 70 69 64 65 62 60
156 178 132 137 148 171 171 174 178 185 186 184 185 184 187 190 189 191 193 194 198 200 203 206 203 203 200 193 191 181 187 175 174 169 167 167 169 179 186 202 194 220 222 228 230 231 230 208 178 174 131 111 100 92 84 80 71 64 56 50 38 23 7 337 26 35 20 10 8 48 42 31 3 66 77 76 69 70 65 65 63 59 48 46 55
164 171 147 131 142 168 173 172 179 184 189 191 188 186 188 189 192 193 194 194 196 197 202 204 198 200 194 190 187 189 183 180 172 171 180 182 190 191 207 213 203 220 218 233 229 217 218 204 154 136 134 115 110 105 95 87 75 64 58 45 33 19 9 343 27 58 18 7 19 66 57 33 18 74 73 73 75 62 55 52 47 44 39 35 45
164 164 151 130 151 161 169 175 178 184 192 192 191 191 192 191 193 196 197 196 196 197 199 200 194 191 185 191 192 191 187 187 183 184 187 190 187 149 180 211 217 217 219 210 202 218 205 189 171 138 124 118 116 111 104 92 83 72 61 51 32 18 358 0 12 43 35 15 6 52 39 23 8 58 60 63 58 58 41 29 45 42 38 38 37
175 163 145 157 149 159 171 175 179 184 190 194 191 193 195 196 196 199 200 199 196 197 197 189 193 187 187 191 193 185 187 185 184 190 186 171 158 158 175 205 204 208 206 201 202 198 204 193 149 134 126 125 121 114 105 96 89 80 71 59 37 12 5 10 61 39 37 2 47 48 38 16 1 54 53 45 57 58 51 45 31 40 37 35 37
187 162 168 182 160 159 173 175 177 180 186 190 194 193 195 199 201 200 202 201 196 195 193 190 192 189 192 195 194 183 186 181 178 165 156 155 151 148 155 193 202 204 201 200 194 199 187 142 140 135 136 131 123 112 102 93 84 76 69 57 41 12 5 11 66 58 21 28 66 49 27 350 36 51 61 58 51 49 51 43 43 37 39 46 47
185 179 185 192 190 164 171 174 180 182 186 185 187 194 196 201 200 200 201 201 197 193 191 196 193 191 190 184 176 165 166 162 153 156 153 144 141 124 135 182 200 205 200 201 199 191 186 153 150 146 139 133 125 114 102 90 81 71 63 49 16 3 354 31 22 22 38 45 60 47 10 358 57 59 55 60 51 56 43 41 50 56 58 51 61
218 185 204 203 190 189 168 177 178 183 189 186 188 186 194 197 197 197 199 199 195 193 193 197 190 185 177 164 150 148 149 151 149 148 148 138 135 134 134 152 200 200 198 199 195 186 178 172 155 149 141 135 122 109 103 96 84 72 55 16 0 348 16 25 15 40 60 61 62 36 358 17 36 68 64 51 53 43 49 61 90 78 64 82 85
196 221 204 198 201 190 190 173 180 185 189 189 189 190 188 190 194 196 195 195 194 192 194 192 180 180 175 154 141 141 145 141 148 146 143 140 143 140 141 150 193 201 197 194 189 184 179 182 158 151 143 125 109 101 95 91 80 70 33 358 3 357 16 16 25 40 50 61 52 22 13 20 31 67 68 65 58 67 80 104 103 90 96 96 93
191 204 217 206 193 201 199 183 178 186 188 191 191 190 183 184 187 187 191 194 195 190 188 181 177 170 164 150 156 153 149 148 158 141 148 141 147 145 149 162 192 202 193 186 189 180 182 184 162 154 141 124 117 99 80 74 72 59 342 342 345 344 22 21 43 40 43 60 55 19 18 19 26 57 65 55 65 73 84 92 91 97 90 81 80
196 194 204 206 197 196 195 201 188 185 188 193 193 189 175 182 188 187 189 188 187 187 184 183 176 169 166 167 171 169 162 156 168 153 160 149 152 153 155 166 188 197 177 177 181 181 183 183 167 154 143 146 146 138 132 132 165 218 251 284 160 63 39 28 50 64 56 62 47 22 18 25 22 44 91 83 76 87 91 83 89 90 97 92 91
199 190 194 195 195 194 203 202 200 185 184 189 192 188 187 176 189 190 188 189 189 186 191 187 181 175 169 173 181 176 175 165 172 164 155 154 154 157 161 165 185 179 169 163 172 177 181 182 172 151 143 166 192 151 152 168 185 207 218 194 105 133 86 75 73 97 91 70 40 26 20 22 24 16 90 105 97 116 104 95 93 97 95 89 74
195 180 174 186 194 195 196 203 198 192 185 185 187 191 190 176 188 191 191 190 192 189 194 193 188 184 169 174 181 179 173 173 142 155 147 148 146 158 162 165 156 166 152 136 137 145 143 116 124 126 161 192 224 160 159 178 189 201 174 126 137 133 104 79 75 100 98 86 46 30 20 12 17 2 123 118 127 115 117 112 102 91 88 87 79
178 175 189 186 191 197 195 195 195 194 192 190 189 188 187 180 181 189 190 194 192 196 193 197 196 191 179 174 176 181 176 164 143 155 156 149 151 161 167 162 153 161 155 143 144 144 138 142 149 164 198 211 196 169 176 173 183 145 105 118 144 128 112 109 101 85 102 94 49 34 20 7 7 3 348 146 113 147 140 135 124 99 84 82 80
175 193 185 190 187 192 195 190 197 195 195 192 189 187 193 192 178 181 189 198 193 193 197 197 202 196 187 179 176 181 177 168 153 157 166 159 156 163 167 168 164 161 169 149 161 161 162 161 166 187 214 185 170 129 91 94 113 108 111 102 97 108 110 98 83 88 105 101 68 35 20 8 2 358 18 57 140 146 151 141 121 116 102 98 85
179 191 190 187 182 192 192 189 193 193 194 191 194 194 194 192 193 188 191 193 193 194 191 194 196 198 192 186 177 175 175 174 159 160 171 165 162 163 164 173 172 165 175 160 166 164 176 165 167 190 192 148 134 133 129 119 108 115 116 111 105 89 94 95 80 62 117 114 86 32 22 10 3 359 345 167 175 186 151 162 165 144 143 107 68
207 198 192 186 190 187 188 192 190 193 190 187 197 196 192 193 191 195 196 189 195 189 185 182 188 192 192 187 175 176 177 174 163 164 162 174 166 164 168 178 171 165 169 188 171 166 177 164 167 180 153 142 143 164 162 165 155 137 125 134 114 105 100 100 91 68 74 113 102 55 30 18 7 6 10 333 187 182 212 196 233 104 124 126 74
215 210 182 196 186 180 187 191 190 192 191 189 194 193 192 190 194 195 192 187 196 187 177 181 183 185 189 187 182 179 176 173 160 159 164 180 175 167 167 175 171 164 166 189 179 161 167 159 161 160 153 153 156 188 150 168 141 123 127 134 128 136 124 116 131 133 104 114 110 91 49 30 25 23 35 23 20 356 290 206 191 161 196 159 139
214 219 206 193 187 178 187 189 190 185 186 196 197 198 190 193 191 190 190 191 188 186 179 177 182 184 184 185 182 180 170 167 160 161 164 176 180 172 172 170 169 171 168 178 164 157 158 160 162 163 164 158 170 170 147 142 123 99 116 118 124 102 104 112 97 92 105 107 124 116 73 49 41 36 38 53 45 36 18 272 198 109 227 223 164
220 229 221 193 179 189 188 187 187 185 185 192 192 198 198 195 188 188 193 189 180 186 183 177 180 182 176 179 180 181 168 171 161 164 166 175 180 175 173 168 173 164 164 158 156 154 157 159 157 160 161 153 153 161 152 141 139 138 116 111 100 111 113 113 111 91 80 107 128 137 117 82 56 49 42 43 51 52 49 47 37 40 309 273 111
237 225 221 202 191 192 188 188 187 184 189 189 189 194 195 194 191 193 190 187 183 182 186 183 177 177 174 173 180 180 175 168 168 166 166 174 175 173 172 169 164 157 154 150 148 151 150 151 162 155 155 141 137 165 147 143 134 139 132 147 114 99 116 114 115 102 125 169 152 148 134 115 90 61 51 47 40 48 58 53 44 33 26 17 132
253 240 206 207 207 183 179 179 187 185 190 190 185 185 190 191 190 189 188 188 191 186 189 183 176 175 170 173 177 179 181 170 162 167 165 169 177 176 172 168 159 154 148 148 155 157 155 154 164 151 159 145 151 160 143 135 133 133 124 132 119 137 121 110 128 133 146 180 163 130 150 145 124 103 77 55 46 44 57 61 59 51 37 33 54
323 323 209 210 186 166 160 168 176 188 182 191 182 180 181 180 179 182 185 188 191 189 187 185 179 177 170 171 176 177 181 174 164 164 172 170 174 174 174 171 158 154 152 161 156 160 154 162 160 154 154 145 147 159 151 147 140 137 136 135 122 120 107 110 102 122 135 174 99 139 147 156 134 132 120 97 56 44 51 61 62 57 52 42 34
356 336 334 166 171 153 142 151 153 181 171 183 179 166 172 174 169 178 178 181 187 188 185 187 179 172 169 167 175 175 176 176 168 166 172 176 175 174 176 167 161 155 155 159 157 164 161 160 172 153 153 162 150 166 159 144 140 137 143 141 132 133 138 129 131 147 188 127 123 140 96 86 119 145 129 106 98 63 61 64 63 58 52 48 43
352 357 352 354 145 133 141 144 148 175 174 175 175 168 154 162 164 163 172 165 181 187 183 167 168 169 162 163 173 176 180 181 173 171 173 177 174 172 175 170 160 157 157 165 167 170 159 162 175 173 163 162 159 162 162 146 140 138 131 124 141 140 142 145 155 159 141 162 159 154 83 85 96 86 111 126 114 103 83 82 74 64 49 55 55
3 1 2 355 17 58 121 129 104 126 164 159 164 157 143 126 131 135 150 151 175 168 179 166 180 173 165 162 171 180 185 185 179 172 173 178 175 172 174 168 160 157 158 166 177 170 166 163 171 181 170 159 162 162 162 149 141 138 129 126 141 140 145 141 146 138 153 175 150 148 138 130 143 90 103 121 132 128 126 110 97 75 52 53 65
8 5 4 5 7 19 53 70 67 72 74 80 108 115 113 91 89 94 98 82 101 114 124 143 163 162 172 151 164 174 182 187 184 172 171 176 175 175 174 171 162 160 159 167 174 174 170 172 170 180 177 174 164 169 160 147 140 132 129 141 126 116 123 114 127 153 183 179 169 173 137 153 141 113 116 110 129 145 155 169 125 101 71 52 49
12 8 7 11 12 10 28 67 43 25 48 64 84 92 96 110 116 89 86 106 92 128 132 147 152 152 157 151 153 168 177 186 184 175 171 175 177 180 174 169 170 162 165 169 180 178 179 176 181 175 174 171 162 159 142 132 111 113 121 97 104 117 94 126 159 197 182 165 158 141 149 154 133 133 131 133 128 131 145 157 141 138 122 98 74
19 14 15 16 13 12 17 26 65 35 49 40 43 85 100 91 85 136 162 166 182 183 179 239 181 175 136 130 137 148 159 171 175 167 182 175 181 176 168 176 173 173 177 186 183 185 184 180 172 176 169 165 172 158 154 133 126 87 77 111 118 153 159 179 210 200 172 168 159 160 182 150 155 148 169 145 146 153 162 158 155 147 145 140 159
15 16 19 16 15 16 17 6 17 45 33 58 74 52 50 146 138 177 149 155 160 165 208 211 212 75 76 92 115 127 147 169 179 178 181 180 183 183 177 179 178 186 189 178 180 182 172 174 160 169 200 171 176 167 163 124 167 165 149 169 321 261 206 205 227 216 198 179 174 179 183 170 167 168 177 147 163 165 168 176 159 147 160 165 171
13 20 18 21 20 16 11 6 11 28 22 33 49 52 30 26 59 28 80 89 70 88 99 87 124 153 118 120 130 144 154 173 182 184 186 189 186 183 188 179 184 179 177 187 185 185 184 180 175 174 181 196 161 180 171 180 160 138 111 94 214 170 292 277 254 224 200 196 184 185 179 173 173 172 168 159 170 177 183 173 160 156 164 165 171
17 19 16 20 22 17 11 11 19 21 19 13 36 33 54 52 55 58 47 74 63 27 39 32 35 49 54 73 81 125 140 172 184 191 196 199 197 197 190 184 189 183 183 187 189 194 187 186 184 186 170 171 181 196 197 187 144 139 172 199 191 142 261 245 210 232 199 197 190 195 179 179 171 172 163 173 180 178 183 168 169 167 175 170 163
21 20 17 19 20 18 12 17 26 17 9 13 15 11 45 49 56 34 41 42 31 56 65 9 71 72 62 96 161 130 156 169 184 199 198 208 213 209 201 195 190 192 187 191 193 198 195 194 189 182 184 184 191 182 206 202 198 193 148 121 99 227 217 212 146 264 192 203 215 196 197 176 177 179 179 186 180 178 173 168 173 174 176 180 174
24 18 15 18 21 18 16 20 22 12 3 3 8 7 35 65 79 101 86 111 162 153 186 196 180 155 193 190 179 175 180 188 186 197 209 213 220 220 217 200 199 197 198 202 201 195 199 197 197 191 195 203 186 170 192 224 212 217 223 210 149 174 177 186 123 236 155 228 212 218 202 199 181 186 195 191 183 179 171 171 176 182 182 184 182
19 12 14 17 20 20 20 24 20 9 1 359 9 13 14 22 44 56 72 67 51 350 25 92 134 178 165 172 185 177 185 186 211 196 207 216 222 228 227 220 206 201 200 202 206 206 205 205 196 199 199 196 170 186 193 198 217 252 237 239 168 153 159 132 202 96 224 285 231 213 230 213 193 192 203 206 189 174 177 168 181 181 182 187 184
11 14 17 12 19 19 18 24 24 14 2 359 5 13 18 6 16 29 49 52 59 33 14 33 76 69 68 107 123 169 189 192 211 221 209 209 217 228 229 230 225 211 200 208 211 212 210 213 205 206 202 200 197 195 194 190 191 212 216 229 233 167 228 171 156 169 159 164 235 254 242 212 206 211 204 206 198 184 174 179 179 181 184 191 186
18 20 16 11 10 18 20 20 25 20 7 2 6 10 11 3 17 27 29 20 27 17 9 17 59 92 77 62 103 178 176 209 222 233 235 220 212 220 228 233 232 230 211 214 216 214 211 202 205 207 209 211 209 203 188 199 200 206 194 225 195 205 223 237 174 131 135 134 224 193 216 220 224 232 219 208 203 189 182 180 178 179 184 190 190
17 21 22 17 14 17 25 24 23 20 9 6 8 15 13 12 18 20 33 18 15 8 18 16 15 29 72 145 166 211 216 202 227 242 252 247 228 222 228 232 233 233 228 221 221 223 223 216 208 208 209 214 213 210 208 198 203 206 205 194 195 165 204 264 244 206 216 173 170 196 194 178 200 230 204 212 200 193 182 176 176 182 185 188 191
15 21 20 16 11 18 22 28 22 17 14 14 15 18 19 12 14 18 30 29 14 20 21 11 11 12 5 350 343 235 210 200 191 219 234 245 244 229 225 236 237 234 231 234 229 224 228 225 218 213 211 212 214 217 222 209 195 204 206 199 205 194 195 194 200 200 187 183 121 188 186 197 202 210 224 208 194 193 182 177 180 185 183 188 190